Tracking 18984 objects as of 24-Feb-2018
HD Live streaming from Space Station
objects crossing your sky now

FLOCK 3P 16

Track FLOCK 3P 16 now!
10-day predictions
FLOCK 3P 16 is classified as:


NORAD ID: 42011
Int'l Code: 2017-008BR
Perigee: 495.0 km
Apogee: 507.2 km
Inclination: 97.5 °
Period: 94.5 minutes
Semi major axis: 6872 km
RCS: Unknown
Launch date: February 15, 2017
Source: United States (US)
Launch site: SRIHARIKOTA (SRI)
aabbcc
Your satellite tracking list
Your tracking list is empty




NASA's NSSDC Master Catalog

Two Line Element Set (TLE):
1 42011U 17008BR  18054.44976887  .00001268  00000-0  55389-4 0  9996
2 42011  97.4638 120.0276 0008821  63.4964 296.7176 15.23942013 55969
Source of the keplerian elements: AFSPC